Torna al catalogo

ONEWEB-0415

AttivoComunicazioniPO
NORAD 51624·PAYLOAD·🇬🇧 United Kingdom

Lanciato Feb 10, 2022 da Guiana Space Centre

Loading…

Prossimi Passaggi (prossime 24 ore)

TLE

AggiornatoSource: CelesTrak SupGP

Epoca: Sep 14, 2026, 14:24 UTC

1 51624C 22012C   26257.60050185 -.00000132  00000+0 -37784-3 0  2578
2 51624  87.8900  18.4656 0001398 108.5179   1.0875 13.10365384    10

Traccia ONEWEB-0415 in tempo reale con AllMySat

Download on the App Store